GW2639 Weather Reports


time (UTC)temp
C
wind
direction
speed
KPH
gust
KPH
rain 1hr
cm
rain 24hr
cm
rain mn
cm
humidity
%
barometer
mb
20260505124545 12 0 0.0 3.2 0.00 0.00 0.00 87 1013.6
20260505123048 12 239 0.0 3.2 0.00 0.00 0.00 90 1013.7
20260505121543 11 236 0.0 3.2 0.00 0.00 0.00 91 1013.4
20260505120051 10 0 1.6 4.8 0.00 0.00 0.00 91 1013.3
20260505114558 10 249 1.6 6.4 0.00 0.00 0.00 92 1013.3
20260505113052 9 0 0.0 9.7 0.00 0.00 0.00 92 1013.2
20260505111541 8 252 4.8 11.3 0.00 0.00 0.00 92 1013.2
20260505101551 8 230 4.8 8.0 0.00 0.00 0.00 92 1013.0
20260505100043 8 206 4.8 8.0 0.00 0.00 0.00 92 1012.6
20260505094542 8 233 3.2 9.7 0.00 0.00 0.00 91 1012.3
20260505093042 8 231 3.2 8.0 0.00 0.00 0.00 91 1012.2
20260505091545 8 216 3.2 8.0 0.00 0.00 0.00 91 1012.1
20260505090044 9 203 1.6 4.8 0.00 0.00 0.00 91 1012.1
20260505084543 9 245 3.2 6.4 0.00 0.00 0.00 91 1012.1
20260505083041 9 236 3.2 8.0 0.00 0.00 0.00 91 1012.0
20260505081540 9 235 1.6 8.0 0.00 0.00 0.00 91 1012.0
20260505080039 9 235 3.2 8.0 0.00 0.00 0.00 90 1011.8
20260505074546 10 232 1.6 4.8 0.00 0.00 0.00 90 1011.7
20260505073052 10 218 1.6 6.4 0.00 0.00 0.00 90 1011.6
20260505071553 10 226 1.6 6.4 0.00 0.00 0.00 90 1011.5
20260505070041 10 231 3.2 6.4 0.00 0.00 0.00 90 1011.5
20260505064541 10 228 3.2 8.0 0.00 0.00 0.00 90 1011.4
20260505063039 10 229 3.2 6.4 0.00 0.00 0.00 89 1011.4
20260505061548 10 231 3.2 6.4 0.00 0.00 0.00 89 1011.4
20260505060050 11 222 1.6 6.4 0.00 0.00 0.00 89 1011.4
20260505054547 11 251 4.8 9.7 0.00 0.00 0.00 88 1011.4
20260505053049 11 241 1.6 6.4 0.00 0.00 0.00 88 1011.3
20260505051555 11 228 3.2 8.0 0.00 0.00 0.00 88 1011.1
20260505041540 12 229 1.6 8.0 0.00 0.00 0.00 86 1010.6
20260505040041 12 238 1.6 8.0 0.00 0.00 0.00 85 1010.5
20260505034542 12 0 3.2 8.0 0.00 0.00 0.00 84 1010.5
20260505033040 13 219 3.2 8.0 0.00 0.00 0.00 83 1010.4
20260505031549 13 222 4.8 9.7 0.00 0.00 0.00 82 1010.3
20260505030040 13 213 4.8 12.9 0.00 0.00 0.00 82 1010.4
20260505024540 14 231 4.8 9.7 0.00 0.00 0.00 81 1010.3
20260505023050 14 229 4.8 9.7 0.00 0.00 0.00 80 1010.2
20260505021541 15 227 4.8 8.0 0.00 0.00 0.00 78 1010.2
20260505020039 15 212 4.8 8.0 0.00 0.00 0.00 77 1010.2
20260505014541 15 210 4.8 9.7 0.00 0.00 0.00 76 1010.1
20260505013057 16 221 3.2 9.7 0.00 0.00 0.00 75 1010.0
20260505011547 16 228 4.8 8.0 0.00 0.00 0.00 74 1010.0
20260505010041 17 236 6.4 11.3 0.00 0.00 0.00 73 1009.8
20260505004540 17 225 3.2 9.7 0.00 0.00 0.00 72 1009.7
20260505003039 18 221 6.4 12.9 0.00 0.00 0.00 70 1009.7
20260505001539 18 226 4.8 8.0 0.00 0.00 0.00 68 1009.7
20260505000054 19 245 3.2 9.7 0.00 0.00 0.00 66 1009.5
20260504234543 20 226 4.8 8.0 0.00 0.00 0.00 64 1009.5
20260504233043 20 242 3.2 8.0 0.00 0.00 0.00 61 1009.3
20260504231542 21 208 3.2 8.0 0.00 0.00 0.00 60 1009.3
20260504230044 22 0 1.6 6.4 0.00 0.00 0.00 54 1009.3
20260504224539 24 235 0.0 9.7 0.00 0.00 0.00 47 1009.5
20260504223047 25 335 1.6 17.7 0.00 0.00 0.00 41 1009.4
20260504221539 25 37 1.6 9.7 0.00 0.00 0.00 43 1009.4
20260504220044 25 5 4.8 9.7 0.00 0.00 0.00 42 1009.3
20260504214555 25 283 3.2 9.7 0.00 0.00 0.00 43 1009.4
20260504213047 25 320 0.0 8.0 0.00 0.00 0.00 43 1009.6
20260504211542 24 151 1.6 11.3 0.00 0.00 0.00 42 1009.9
20260504210042 24 234 6.4 16.1 0.00 0.00 0.00 42 1010.1
20260504204545 24 278 6.4 19.3 0.00 0.00 0.00 41 1010.3
20260504203043 23 283 9.7 20.9 0.00 0.00 0.00 43 1010.4
20260504201559 23 318 3.2 17.7 0.00 0.00 0.00 47 1010.6
20260504200046 22 281 3.2 12.9 0.00 0.00 0.00 50 1010.9
20260504194547 21 56 1.6 6.4 0.00 0.00 0.00 58 1011.2
20260504193040 21 14 0.0 9.7 0.00 0.00 0.00 59 1011.8
20260504191548 22 270 6.4 12.9 0.00 0.00 0.00 49 1012.5
20260504190039 22 285 4.8 14.5 0.00 0.00 0.00 45 1011.5
20260504184559 22 204 3.2 12.9 0.00 0.00 0.00 44 1011.2
20260504183042 23 185 6.4 16.1 0.00 0.00 0.00 44 1011.3
20260504181540 23 16 8.0 24.1 0.00 0.00 0.00 43 1011.3
20260504180053 22 266 9.7 19.3 0.00 0.00 0.00 44 1011.7
20260504174540 22 54 8.0 19.3 0.00 0.00 0.00 45 1011.9
20260504173040 21 91 6.4 30.6 0.00 0.00 0.00 47 1012.1
20260504171540 21 303 1.6 9.7 0.00 0.00 0.00 50 1012.6